Location: Prague
(50.0830°N, 14.4670°E)
Time: 09:07:03
(UTC+01:00)

XW-2F - Pass Details

Date: 28 November 2021
Orbit: 494 x 515 km, 97.5° (Epoch: 18 January)

Event Time Altitude Azimuth Distance (km) Brightness Sun altitude
Rises 05:05:03 0° 31° (NNE) 2,653 ? -23.3°
Reaches altitude 10° 05:08:18 10° 62° (ENE) 1,760 ? -22.8°
Maximum altitude 05:09:58 13° 88° (E) 1,603 ? -22.5°
Drops below altitude 10° 05:11:38 10° 115° (ESE) 1,753 ? -22.3°
Sets 05:14:50 0° 145° (SE) 2,632 ? -21.8°
